| time (UTC) | temp F | wind direction | speed MPH | gust MPH | rain 1hr in | rain 24hr in | rain mn in | humidity % | barometer mb |
| 20260507054724 | 44 | 25 | 4.0 | 7.0 | 0.00 | 0.00 | 0.00 | 39 | 1015.9 |
| 20260507052724 | 43 | 21 | 4.0 | 8.0 | 0.00 | 0.00 | 0.00 | 41 | 1015.9 |
| 20260507050723 | 43 | 37 | 4.0 | 10.0 | 0.00 | 0.00 | 0.00 | 42 | 1015.8 |
| 20260507044724 | 42 | 32 | 5.0 | 9.0 | 0.00 | 0.00 | 0.00 | 43 | 1015.7 |
| 20260507042724 | 41 | 34 | 6.0 | 11.0 | 0.00 | 0.00 | 0.00 | 46 | 1015.8 |
| 20260507040724 | 38 | 34 | 7.0 | 13.0 | 0.00 | 0.00 | 0.00 | 48 | 1015.8 |
| 20260507032724 | 37 | 24 | 7.0 | 11.0 | 0.00 | 0.00 | 0.00 | 50 | 1015.8 |
| 20260507030724 | 36 | 24 | 8.0 | 12.0 | 0.00 | 0.00 | 0.00 | 51 | 1015.6 |
| 20260507024723 | 36 | 23 | 7.0 | 12.0 | 0.00 | 0.00 | 0.00 | 51 | 1015.6 |
| 20260507022723 | 36 | 24 | 7.0 | 11.0 | 0.00 | 0.00 | 0.00 | 49 | 1015.6 |
| 20260507020723 | 36 | 21 | 8.0 | 13.0 | 0.00 | 0.00 | 0.00 | 48 | 1015.6 |
| 20260507014724 | 37 | 22 | 7.0 | 13.0 | 0.00 | 0.00 | 0.00 | 47 | 1015.5 |
| 20260507012723 | 37 | 20 | 8.0 | 13.0 | 0.00 | 0.00 | 0.00 | 47 | 1015.5 |
| 20260507010723 | 36 | 17 | 7.0 | 12.0 | 0.00 | 0.00 | 0.00 | 48 | 1015.5 |
| 20260507004723 | 36 | 23 | 8.0 | 12.0 | 0.00 | 0.00 | 0.00 | 49 | 1015.4 |
| 20260507002723 | 37 | 11 | 7.0 | 11.0 | 0.00 | 0.00 | 0.00 | 48 | 1015.3 |
| 20260507000723 | 36 | 10 | 7.0 | 11.0 | 0.00 | 0.00 | 0.00 | 48 | 1015.4 |
| 20260506234723 | 37 | 6 | 7.0 | 11.0 | 0.00 | 0.00 | 0.00 | 47 | 1015.3 |
| 20260506232723 | 37 | 8 | 7.0 | 11.0 | 0.00 | 0.00 | 0.00 | 46 | 1015.2 |
| 20260506230724 | 37 | 2 | 7.0 | 11.0 | 0.00 | 0.00 | 0.00 | 45 | 1015.2 |
| 20260506224722 | 38 | 3 | 6.0 | 10.0 | 0.00 | 0.00 | 0.00 | 43 | 1015.2 |
| 20260506222723 | 38 | 1 | 6.0 | 10.0 | 0.00 | 0.00 | 0.00 | 43 | 1015.2 |
| 20260506220723 | 38 | 353 | 6.0 | 11.0 | 0.00 | 0.00 | 0.00 | 44 | 1015.0 |
| 20260506214723 | 38 | 342 | 6.0 | 10.0 | 0.00 | 0.00 | 0.00 | 43 | 1014.9 |
| 20260506212723 | 39 | 327 | 6.0 | 9.0 | 0.00 | 0.00 | 0.00 | 41 | 1014.7 |
| 20260506210722 | 39 | 331 | 6.0 | 9.0 | 0.00 | 0.00 | 0.00 | 41 | 1014.7 |
| 20260506204722 | 39 | 325 | 6.0 | 9.0 | 0.00 | 0.00 | 0.00 | 40 | 1014.6 |
| 20260506202722 | 39 | 325 | 6.0 | 9.0 | 0.00 | 0.00 | 0.00 | 38 | 1014.6 |
| 20260506200722 | 40 | 321 | 6.0 | 8.0 | 0.00 | 0.00 | 0.00 | 37 | 1014.6 |
| 20260506194722 | 41 | 330 | 5.0 | 7.0 | 0.00 | 0.00 | 0.00 | 38 | 1014.4 |
| 20260506192722 | 41 | 330 | 6.0 | 7.0 | 0.00 | 0.00 | 0.00 | 47 | 1014.3 |
| 20260506190722 | 42 | 324 | 3.0 | 5.0 | 0.00 | 0.00 | 0.00 | 63 | 1014.3 |
| 20260506184722 | 42 | 328 | 2.0 | 6.0 | 0.00 | 0.00 | 0.00 | 63 | 1014.2 |
| 20260506182723 | 45 | 189 | 1.0 | 3.0 | 0.00 | 0.00 | 0.00 | 57 | 1014.1 |
| 20260506180722 | 46 | 193 | 3.0 | 7.0 | 0.00 | 0.00 | 0.00 | 56 | 1014.0 |
| 20260506174722 | 46 | 182 | 4.0 | 9.0 | 0.00 | 0.00 | 0.00 | 56 | 1014.0 |
| 20260506172721 | 46 | 183 | 5.0 | 9.0 | 0.00 | 0.00 | 0.00 | 55 | 1013.9 |
| 20260506164720 | 47 | 187 | 5.0 | 10.0 | 0.00 | 0.00 | 0.00 | 54 | 1013.6 |
| 20260506162721 | 48 | 178 | 5.0 | 12.0 | 0.00 | 0.00 | 0.00 | 51 | 1013.6 |
| 20260506160721 | 49 | 187 | 6.0 | 13.0 | 0.00 | 0.00 | 0.00 | 49 | 1013.5 |
| 20260506152722 | 51 | 188 | 9.0 | 17.0 | 0.00 | 0.00 | 0.00 | 42 | 1013.4 |
| 20260506150721 | 51 | 175 | 8.0 | 17.0 | 0.00 | 0.00 | 0.00 | 44 | 1013.4 |
| 20260506144721 | 51 | 183 | 9.0 | 17.0 | 0.00 | 0.00 | 0.00 | 41 | 1013.6 |
| 20260506142721 | 52 | 200 | 5.0 | 12.0 | 0.00 | 0.00 | 0.00 | 40 | 1013.5 |
| 20260506140720 | 52 | 200 | 7.0 | 16.0 | 0.00 | 0.00 | 0.00 | 42 | 1013.5 |
| 20260506134720 | 51 | 178 | 8.0 | 15.0 | 0.00 | 0.00 | 0.00 | 40 | 1013.5 |
| 20260506132720 | 53 | 181 | 9.0 | 16.0 | 0.00 | 0.00 | 0.00 | 37 | 1013.5 |
| 20260506130720 | 53 | 162 | 5.0 | 12.0 | 0.00 | 0.00 | 0.00 | 38 | 1013.3 |
| 20260506124720 | 51 | 237 | 2.0 | 6.0 | 0.00 | 0.00 | 0.00 | 31 | 1013.7 |
| 20260506122720 | 55 | 286 | 6.0 | 14.0 | 0.00 | 0.00 | 0.00 | 25 | 1013.4 |
| 20260506120720 | 50 | 293 | 5.0 | 12.0 | 0.00 | 0.00 | 0.00 | 34 | 1013.6 |
| 20260506114721 | 51 | 283 | 6.0 | 11.0 | 0.00 | 0.00 | 0.00 | 31 | 1013.6 |
| 20260506112721 | 54 | 266 | 6.0 | 14.0 | 0.00 | 0.00 | 0.00 | 28 | 1013.4 |
| 20260506110721 | 54 | 259 | 6.0 | 11.0 | 0.00 | 0.00 | 0.00 | 27 | 1013.4 |
| 20260506104721 | 49 | 263 | 8.0 | 15.0 | 0.00 | 0.00 | 0.00 | 32 | 1013.5 |
| 20260506102721 | 52 | 276 | 8.0 | 15.0 | 0.00 | 0.00 | 0.00 | 26 | 1013.3 |
| 20260506100721 | 50 | 274 | 6.0 | 13.0 | 0.00 | 0.00 | 0.00 | 29 | 1013.4 |
| 20260506094721 | 53 | 232 | 8.0 | 14.0 | 0.00 | 0.00 | 0.00 | 32 | 1013.2 |
| 20260506092721 | 51 | 267 | 8.0 | 17.0 | 0.00 | 0.00 | 0.00 | 29 | 1013.1 |
| 20260506090721 | 50 | 257 | 8.0 | 15.0 | 0.00 | 0.00 | 0.00 | 38 | 1013.1 |
| 20260506084721 | 51 | 275 | 9.0 | 15.0 | 0.00 | 0.00 | 0.00 | 32 | 1013.0 |
| 20260506082721 | 49 | 267 | 9.0 | 15.0 | 0.00 | 0.00 | 0.00 | 37 | 1013.0 |
| 20260506080721 | 48 | 276 | 8.0 | 17.0 | 0.00 | 0.00 | 0.00 | 37 | 1012.9 |
| 20260506072721 | 47 | 276 | 7.0 | 16.0 | 0.00 | 0.00 | 0.00 | 45 | 1012.7 |
| 20260506070721 | 46 | 283 | 6.0 | 13.0 | 0.00 | 0.00 | 0.00 | 50 | 1012.6 |
| 20260506060721 | 43 | 268 | 6.0 | 11.0 | 0.00 | 0.00 | 0.00 | 62 | 1012.2 |